When you browse on this site, cookies collect data to enhance your experience and personalize the content and advertising you see.
Visit our Privacy Policy to learn more. By continuing to use the site, you agree to this use of cookies and data.
  • In Sweden
  • List of Countries
  • For 7 days
  • Water Temperature
  • Weather Map
  • Weather Widgets
  • user-avatar
    Login

    Hourly Weather Padang

    Today, 27 May, Wednesday

    Time Temperature Precipitation Wind Pressure Humidity
    00:00 +28°C° 0 mm 1 mps 759 mmHg 83%
    01:00 +28°C° 0 mm 1 mps 759 mmHg 81%
    02:00 +28°C° 0 mm 1 mps 758 mmHg 79%
    03:00 +28°C° 0 mm 1 mps 758 mmHg 76%
    04:00 +29°C° 0 mm 1 mps 757 mmHg 74%
    05:00 +29°C° 0 mm 1 mps 758 mmHg 74%
    06:00 +28°C° 0 mm 1 mps 758 mmHg 74%
    07:00 +28°C° 0 mm 1 mps 758 mmHg 74%
    08:00 +30°C° 0 mm 1 mps 759 mmHg 68%
    09:00 +32°C° 0 mm 1 mps 759 mmHg 62%
    10:00 +32°C° 0 mm 0 mps 759 mmHg 57%
    11:00 +35°C° 0 mm 1 mps 758 mmHg 56%
    12:00 +35°C° 0 mm 1 mps 758 mmHg 55%
    13:00 +37°C° 0 mm 2 mps 757 mmHg 55%
    14:00 +36°C° 0 mm 2 mps 757 mmHg 60%
    15:00 +35°C° 0 mm 2 mps 756 mmHg 65%
    16:00 +33°C° 0 mm 1 mps 756 mmHg 70%
    17:00 +32°C° 0.2 mm 1 mps 756 mmHg 79%
    18:00 +30°C° 0.2 mm 1 mps 757 mmHg 87%
    19:00 +26°C° 0.2 mm 0 mps 757 mmHg 95%
    20:00 +28°C° 0.1 mm 1 mps 758 mmHg 94%
    21:00 +28°C° 0.1 mm 1 mps 758 mmHg 93%
    22:00 +28°C° 0.1 mm 1 mps 759 mmHg 92%
    23:00 +28°C° 0.1 mm 1 mps 759 mmHg 91%

    Tomorrow, 28 May, Thursday

    Time Temperature Precipitation Wind Pressure Humidity
    00:00 +28°C° 0.1 mm 1 mps 759 mmHg 91%
    01:00 +27°C° 0.1 mm 1 mps 759 mmHg 91%
    02:00 +27°C° 0.1 mm 1 mps 758 mmHg 91%
    03:00 +27°C° 0.1 mm 1 mps 758 mmHg 92%
    04:00 +27°C° 0.1 mm 1 mps 757 mmHg 92%
    05:00 +27°C° 0.1 mm 1 mps 758 mmHg 92%
    06:00 +28°C° 0.1 mm 1 mps 758 mmHg 92%
    07:00 +28°C° 0.1 mm 1 mps 758 mmHg 91%
    08:00 +29°C° 0 mm 1 mps 759 mmHg 84%
    09:00 +31°C° 0 mm 1 mps 759 mmHg 77%
    10:00 +33°C° 0 mm 1 mps 759 mmHg 70%
    11:00 +33°C° 0 mm 1 mps 758 mmHg 68%
    12:00 +35°C° 0 mm 2 mps 758 mmHg 66%
    13:00 +36°C° 0 mm 2 mps 757 mmHg 64%
    14:00 +35°C° 0.5 mm 2 mps 757 mmHg 72%
    15:00 +32°C° 0.5 mm 1 mps 756 mmHg 80%
    16:00 +31°C° 0.5 mm 1 mps 756 mmHg 88%
    17:00 +30°C° 0.3 mm 1 mps 756 mmHg 91%
    18:00 +29°C° 0.3 mm 1 mps 757 mmHg 93%
    19:00 +29°C° 0.3 mm 1 mps 757 mmHg 96%
    20:00 +28°C° 0.1 mm 1 mps 758 mmHg 95%
    21:00 +28°C° 0.1 mm 1 mps 758 mmHg 95%
    22:00 +28°C° 0.1 mm 1 mps 759 mmHg 94%
    23:00 +28°C° 0 mm 1 mps 759 mmHg 94%

    Day after tomorrow, 29 May, Friday

    Time Temperature Precipitation Wind Pressure Humidity
    00:00 +28°C° 0 mm 1 mps 758 mmHg 94%
    01:00 +28°C° 0 mm 1 mps 758 mmHg 94%
    02:00 +27°C° 0 mm 1 mps 758 mmHg 94%
    03:00 +27°C° 0 mm 1 mps 757 mmHg 95%
    04:00 +27°C° 0 mm 1 mps 757 mmHg 95%
    05:00 +27°C° 0 mm 1 mps 757 mmHg 94%
    06:00 +27°C° 0 mm 1 mps 758 mmHg 94%
    07:00 +28°C° 0 mm 1 mps 758 mmHg 94%
    08:00 +30°C° 0 mm 1 mps 759 mmHg 83%
    09:00 +32°C° 0 mm 1 mps 759 mmHg 73%
    10:00 +34°C° 0 mm 1 mps 759 mmHg 62%
    11:00 +34°C° 0.3 mm 1 mps 758 mmHg 68%
    12:00 +34°C° 0.3 mm 2 mps 758 mmHg 74%
    13:00 +34°C° 0.3 mm 2 mps 758 mmHg 80%
    14:00 +32°C° 0.4 mm 2 mps 757 mmHg 83%
    15:00 +32°C° 0.4 mm 1 mps 757 mmHg 85%
    16:00 +31°C° 0.4 mm 1 mps 756 mmHg 88%
    17:00 +30°C° 0.1 mm 1 mps 757 mmHg 91%
    18:00 +29°C° 0.1 mm 1 mps 757 mmHg 94%
    19:00 +26°C° 0.1 mm 0 mps 758 mmHg 97%
    20:00 +28°C° 0 mm 1 mps 759 mmHg 96%
    21:00 +28°C° 0 mm 1 mps 759 mmHg 95%
    22:00 +28°C° 0 mm 1 mps 760 mmHg 95%
    23:00 +28°C° 0.1 mm 1 mps 759 mmHg 94%

    30 May, Saturday

    Time Temperature Precipitation Wind Pressure Humidity
    00:00 +27°C° 0.1 mm 1 mps 759 mmHg 93%
    01:00 +27°C° 0.1 mm 1 mps 759 mmHg 92%
    02:00 +27°C° 0 mm 1 mps 759 mmHg 91%
    03:00 +27°C° 0 mm 1 mps 758 mmHg 90%
    04:00 +27°C° 0 mm 1 mps 758 mmHg 89%
    05:00 +27°C° 0 mm 1 mps 758 mmHg 89%
    06:00 +27°C° 0 mm 1 mps 758 mmHg 89%
    07:00 +27°C° 0 mm 1 mps 758 mmHg 89%
    08:00 +30°C° 0 mm 1 mps 759 mmHg 80%
    09:00 +32°C° 0 mm 1 mps 759 mmHg 70%
    10:00 +34°C° 0 mm 1 mps 759 mmHg 61%
    11:00 +34°C° 0.2 mm 1 mps 759 mmHg 66%
    12:00 +35°C° 0.2 mm 2 mps 758 mmHg 70%
    13:00 +34°C° 0.2 mm 2 mps 757 mmHg 74%
    14:00 +34°C° 0.6 mm 2 mps 757 mmHg 78%
    15:00 +32°C° 0.6 mm 2 mps 757 mmHg 81%
    16:00 +31°C° 0.6 mm 2 mps 756 mmHg 84%
    17:00 +30°C° 0.4 mm 2 mps 757 mmHg 87%
    18:00 +29°C° 0.4 mm 1 mps 757 mmHg 91%
    19:00 +28°C° 0.4 mm 1 mps 758 mmHg 94%
    20:00 +28°C° 0.5 mm 1 mps 758 mmHg 94%
    21:00 +28°C° 0.5 mm 1 mps 759 mmHg 93%
    22:00 +28°C° 0.5 mm 1 mps 759 mmHg 93%
    23:00 +27°C° 0.1 mm 1 mps 759 mmHg 94%

    31 May, Sunday

    Time Temperature Precipitation Wind Pressure Humidity
    00:00 +27°C° 0.1 mm 1 mps 759 mmHg 94%
    01:00 +27°C° 0.1 mm 1 mps 759 mmHg 94%
    02:00 +27°C° 0.1 mm 1 mps 759 mmHg 94%
    03:00 +27°C° 0.1 mm 1 mps 758 mmHg 94%
    04:00 +27°C° 0.1 mm 1 mps 758 mmHg 93%
    05:00 +27°C° 0 mm 1 mps 759 mmHg 93%
    06:00 +27°C° 0 mm 1 mps 759 mmHg 92%
    07:00 +27°C° 0 mm 1 mps 759 mmHg 92%
    08:00 +29°C° 0.2 mm 1 mps 759 mmHg 88%
    09:00 +31°C° 0.2 mm 1 mps 759 mmHg 83%
    10:00 +32°C° 0.2 mm 1 mps 759 mmHg 79%
    11:00 +32°C° 0.6 mm 1 mps 759 mmHg 79%
    12:00 +33°C° 0.6 mm 1 mps 758 mmHg 79%
    13:00 +33°C° 0.6 mm 1 mps 757 mmHg 79%
    14:00 +32°C° 0.5 mm 1 mps 757 mmHg 79%
    15:00 +32°C° 0.5 mm 1 mps 757 mmHg 80%
    16:00 +32°C° 0.5 mm 1 mps 756 mmHg 80%
    17:00 +30°C° 0.5 mm 1 mps 757 mmHg 84%
    18:00 +29°C° 0.5 mm 1 mps 757 mmHg 88%
    19:00 +28°C° 0.5 mm 1 mps 757 mmHg 93%
    20:00 +28°C° 0.4 mm 1 mps 758 mmHg 92%
    21:00 +28°C° 0.4 mm 1 mps 759 mmHg 92%
    22:00 +28°C° 0.4 mm 1 mps 759 mmHg 91%
    23:00 +28°C° 0.1 mm 1 mps 759 mmHg 91%

    1 June, Monday

    Time Temperature Precipitation Wind Pressure Humidity
    00:00 +28°C° 0.1 mm 1 mps 759 mmHg 90%
    01:00 +28°C° 0.1 mm 1 mps 759 mmHg 89%
    02:00 +27°C° 0.1 mm 1 mps 758 mmHg 90%
    03:00 +27°C° 0.1 mm 1 mps 758 mmHg 90%
    04:00 +27°C° 0.1 mm 1 mps 758 mmHg 90%
    05:00 +27°C° 0.1 mm 1 mps 758 mmHg 90%
    06:00 +27°C° 0.1 mm 1 mps 758 mmHg 90%
    07:00 +27°C° 0.1 mm 1 mps 758 mmHg 90%
    08:00 +29°C° 0 mm 1 mps 759 mmHg 82%
    09:00 +31°C° 0 mm 1 mps 759 mmHg 74%
    10:00 +33°C° 0 mm 1 mps 759 mmHg 66%
    11:00 +33°C° 0.1 mm 1 mps 759 mmHg 65%
    12:00 +34°C° 0.1 mm 1 mps 758 mmHg 65%
    13:00 +35°C° 0.1 mm 2 mps 757 mmHg 65%
    14:00 +34°C° 0.2 mm 2 mps 757 mmHg 70%
    15:00 +33°C° 0.2 mm 1 mps 756 mmHg 74%
    16:00 +32°C° 0.2 mm 1 mps 756 mmHg 79%
    17:00 +31°C° 0.2 mm 1 mps 756 mmHg 84%
    18:00 +29°C° 0.2 mm 1 mps 757 mmHg 89%
    19:00 +26°C° 0.2 mm 0 mps 757 mmHg 94%
    20:00 +26°C° 0 mm 0 mps 758 mmHg 93%
    21:00 +28°C° 0 mm 1 mps 758 mmHg 93%
    22:00 +27°C° 0 mm 1 mps 759 mmHg 92%
    23:00 +27°C° 0 mm 1 mps 759 mmHg 92%
    Show more